Time,TemperatureF,DewpointF,PressureIn,WindDirection,WindDirectionDegrees,WindSpeedMPH,WindSpeedGustMPH,Humidity,HourlyPrecipIn,Conditions,Clouds,dailyrainin,SoftwareType,DateUTC
2013-07-14 00:10:00,69.3,66.2,30.02,ESE,112,1.7,-999.0,90,-99.99,,,0.00,Acu-Link.com,2013-07-14 04:10:00,
2013-07-14 00:25:00,69.1,66.4,30.03,ESE,112,0.0,-999.0,91,-99.99,,,0.00,Acu-Link.com,2013-07-14 04:25:00,
2013-07-14 00:40:00,69.6,65.9,30.03,East,90,0.0,-999.0,88,-99.99,,,0.00,Acu-Link.com,2013-07-14 04:40:00,
2013-07-14 00:56:00,69.6,66.2,30.02,West,270,0.0,-999.0,89,-99.99,,,0.00,Acu-Link.com,2013-07-14 04:56:00,
2013-07-14 01:11:00,69.6,66.9,30.02,SSE,157,0.0,-999.0,91,-99.99,,,0.00,Acu-Link.com,2013-07-14 05:11:00,
2013-07-14 01:26:00,69.4,66.7,30.02,WSW,247,1.1,-999.0,91,-99.99,,,0.00,Acu-Link.com,2013-07-14 05:26:00,
2013-07-14 01:41:00,69.3,66.9,30.02,West,270,0.0,-999.0,92,-99.99,,,0.00,Acu-Link.com,2013-07-14 05:41:00,
2013-07-14 01:57:00,69.3,66.9,30.02,SSW,202,1.7,-999.0,92,-99.99,,,0.00,Acu-Link.com,2013-07-14 05:57:00,
2013-07-14 02:12:00,69.4,67.0,30.02,ENE,67,0.0,-999.0,92,-99.99,,,0.00,Acu-Link.com,2013-07-14 06:12:00,
2013-07-14 02:27:00,69.6,67.2,30.02,WSW,247,0.0,-999.0,92,-99.99,,,0.01,Acu-Link.com,2013-07-14 06:27:00,
2013-07-14 02:43:00,68.9,68.0,30.02,East,90,0.0,-999.0,97,-99.99,,,0.08,Acu-Link.com,2013-07-14 06:43:00,
2013-07-14 02:58:00,68.4,68.1,30.01,WNW,292,1.7,-999.0,99,-99.99,,,0.09,Acu-Link.com,2013-07-14 06:58:00,
2013-07-14 03:13:00,68.4,68.1,30.01,NNE,22,1.1,-999.0,99,-99.99,,,0.09,Acu-Link.com,2013-07-14 07:13:00,
2013-07-14 03:29:00,68.7,68.4,30.01,SE,135,1.7,-999.0,99,-99.99,,,0.09,Acu-Link.com,2013-07-14 07:29:00,
2013-07-14 03:44:00,68.5,68.2,30.01,NNE,22,1.1,-999.0,99,-99.99,,,0.09,Acu-Link.com,2013-07-14 07:44:00,
2013-07-14 03:59:00,68.7,68.4,30.01,WNW,292,1.1,-999.0,99,-99.99,,,0.09,Acu-Link.com,2013-07-14 07:59:00,
2013-07-14 04:15:00,68.7,68.4,30.01,West,270,0.0,-999.0,99,-99.99,,,0.09,Acu-Link.com,2013-07-14 08:15:00,
2013-07-14 04:30:00,68.7,68.4,30.01,West,270,1.7,-999.0,99,-99.99,,,0.09,Acu-Link.com,2013-07-14 08:30:00,
2013-07-14 04:45:00,68.7,68.4,30.02,WNW,292,2.7,-999.0,99,-99.99,,,0.11,Acu-Link.com,2013-07-14 08:45:00,
2013-07-14 05:00:00,68.5,68.2,30.02,WNW,292,0.0,-999.0,99,-99.99,,,0.12,Acu-Link.com,2013-07-14 09:00:00,
2013-07-14 05:15:00,68.5,68.2,30.02,ENE,67,0.0,-999.0,99,-99.99,,,0.13,Acu-Link.com,2013-07-14 09:15:00,
2013-07-14 05:30:00,68.5,68.2,30.02,WSW,247,0.0,-999.0,99,-99.99,,,0.13,Acu-Link.com,2013-07-14 09:30:00,
2013-07-14 05:46:00,68.5,68.2,30.04,West,270,0.0,-999.0,99,-99.99,,,0.15,Acu-Link.com,2013-07-14 09:46:00,
2013-07-14 06:01:00,68.4,68.1,30.04,ESE,112,2.2,-999.0,99,-99.99,,,0.15,Acu-Link.com,2013-07-14 10:01:00,
2013-07-14 06:16:00,68.5,68.2,30.05,West,270,0.0,-999.0,99,-99.99,,,0.17,Acu-Link.com,2013-07-14 10:16:00,
2013-07-14 06:31:00,68.4,68.1,30.05,NW,315,0.0,-999.0,99,-99.99,,,0.17,Acu-Link.com,2013-07-14 10:31:00,
2013-07-14 06:46:00,68.4,68.1,30.06,SW,225,1.1,-999.0,99,-99.99,,,0.19,Acu-Link.com,2013-07-14 10:46:00,
2013-07-14 07:02:00,68.4,68.1,30.06,ESE,112,0.0,-999.0,99,-99.99,,,0.20,Acu-Link.com,2013-07-14 11:02:00,
2013-07-14 07:17:00,68.4,68.1,30.07,SW,225,1.1,-999.0,99,-99.99,,,0.20,Acu-Link.com,2013-07-14 11:17:00,
2013-07-14 07:32:00,68.5,68.2,30.07,ENE,67,2.2,-999.0,99,-99.99,,,0.20,Acu-Link.com,2013-07-14 11:32:00,
2013-07-14 07:47:00,68.7,68.4,30.07,WSW,247,1.7,-999.0,99,-99.99,,,0.20,Acu-Link.com,2013-07-14 11:47:00,
2013-07-14 08:02:00,68.9,68.6,30.08,SW,225,0.0,-999.0,99,-99.99,,,0.20,Acu-Link.com,2013-07-14 12:02:00,
2013-07-14 08:17:00,69.6,69.3,30.08,West,270,0.0,-999.0,99,-99.99,,,0.20,Acu-Link.com,2013-07-14 12:17:00,
2013-07-14 08:33:00,69.6,69.3,30.08,WNW,292,1.7,-999.0,99,-99.99,,,0.21,Acu-Link.com,2013-07-14 12:33:00,
2013-07-14 08:48:00,69.4,69.1,30.09,East,90,0.0,-999.0,99,-99.99,,,0.22,Acu-Link.com,2013-07-14 12:48:00,
2013-07-14 09:03:00,69.4,69.1,30.09,NNW,337,1.7,-999.0,99,-99.99,,,0.23,Acu-Link.com,2013-07-14 13:03:00,
2013-07-14 09:19:00,69.4,69.1,30.10,NE,45,1.7,-999.0,99,-99.99,,,0.23,Acu-Link.com,2013-07-14 13:19:00,
2013-07-14 09:34:00,69.1,68.8,30.11,ENE,67,2.2,-999.0,99,-99.99,,,0.31,Acu-Link.com,2013-07-14 13:34:00,
2013-07-14 09:49:00,69.4,69.1,30.10,WSW,247,2.7,-999.0,99,-99.99,,,0.32,Acu-Link.com,2013-07-14 13:49:00,
2013-07-14 10:04:00,69.8,69.2,30.10,NNE,22,2.2,-999.0,98,-99.99,,,0.32,Acu-Link.com,2013-07-14 14:04:00,
2013-07-14 10:20:00,70.7,69.8,30.10,ENE,67,0.0,-999.0,97,-99.99,,,0.32,Acu-Link.com,2013-07-14 14:20:00,
2013-07-14 10:35:00,70.9,70.0,30.10,NE,45,1.1,-999.0,97,-99.99,,,0.32,Acu-Link.com,2013-07-14 14:35:00,
2013-07-14 10:50:00,71.2,69.7,30.11,West,270,1.7,-999.0,95,-99.99,,,0.32,Acu-Link.com,2013-07-14 14:50:00,
2013-07-14 11:05:00,71.1,69.9,30.11,ESE,112,1.7,-999.0,96,-99.99,,,0.32,Acu-Link.com,2013-07-14 15:05:00,
2013-07-14 11:20:00,71.6,70.4,30.11,ENE,67,0.0,-999.0,96,-99.99,,,0.32,Acu-Link.com,2013-07-14 15:20:00,
2013-07-14 11:35:00,72.5,70.7,30.12,NNW,337,1.7,-999.0,94,-99.99,,,0.32,Acu-Link.com,2013-07-14 15:35:00,
2013-07-14 11:50:00,73.2,71.0,30.11,SSE,157,0.0,-999.0,93,-99.99,,,0.32,Acu-Link.com,2013-07-14 15:50:00,
2013-07-14 12:06:00,73.2,70.4,30.12,NE,45,2.7,-999.0,91,-99.99,,,0.32,Acu-Link.com,2013-07-14 16:06:00,
2013-07-14 12:21:00,73.0,71.2,30.13,West,270,0.0,-999.0,94,-99.99,,,0.32,Acu-Link.com,2013-07-14 16:21:00,
2013-07-14 12:36:00,73.2,70.7,30.13,NNE,22,3.2,-999.0,92,-99.99,,,0.32,Acu-Link.com,2013-07-14 16:36:00,
2013-07-14 12:52:00,73.4,69.6,30.13,NW,315,4.7,-999.0,88,-99.99,,,0.32,Acu-Link.com,2013-07-14 16:52:00,
2013-07-14 13:07:00,73.2,70.1,30.13,West,270,1.7,-999.0,90,-99.99,,,0.32,Acu-Link.com,2013-07-14 17:07:00,
2013-07-14 13:22:00,74.3,71.8,30.12,WNW,292,3.2,-999.0,92,-99.99,,,0.32,Acu-Link.com,2013-07-14 17:22:00,
2013-07-14 13:38:00,75.4,71.3,30.12,NNE,22,1.7,-999.0,87,-99.99,,,0.32,Acu-Link.com,2013-07-14 17:38:00,
2013-07-14 13:53:00,74.5,71.0,30.12,East,90,2.2,-999.0,89,-99.99,,,0.33,Acu-Link.com,2013-07-14 17:53:00,
2013-07-14 14:08:00,73.4,71.6,30.12,SSE,157,1.7,-999.0,94,-99.99,,,0.33,Acu-Link.com,2013-07-14 18:08:00,
2013-07-14 14:23:00,73.8,72.0,30.12,NW,315,1.7,-999.0,94,-99.99,,,0.37,Acu-Link.com,2013-07-14 18:23:00,
2013-07-14 14:39:00,75.6,72.8,30.11,SSE,157,1.7,-999.0,91,-99.99,,,0.37,Acu-Link.com,2013-07-14 18:39:00,
2013-07-14 14:54:00,74.5,71.7,30.12,ENE,67,2.2,-999.0,91,-99.99,,,0.38,Acu-Link.com,2013-07-14 18:54:00,
2013-07-14 15:09:00,71.8,70.3,30.12,West,270,3.7,-999.0,95,-99.99,,,0.51,Acu-Link.com,2013-07-14 19:09:00,
2013-07-14 15:24:00,71.6,70.4,30.12,ESE,112,1.7,-999.0,96,-99.99,,,0.51,Acu-Link.com,2013-07-14 19:24:00,
2013-07-14 15:40:00,71.1,70.2,30.12,WSW,247,2.2,-999.0,97,-99.99,,,0.51,Acu-Link.com,2013-07-14 19:40:00,
2013-07-14 15:55:00,71.4,70.8,30.11,SSE,157,0.0,-999.0,98,-99.99,,,0.51,Acu-Link.com,2013-07-14 19:55:00,
2013-07-14 16:10:00,70.9,70.6,30.11,West,270,1.7,-999.0,99,-99.99,,,0.66,Acu-Link.com,2013-07-14 20:10:00,
2013-07-14 16:26:00,70.7,69.8,30.11,NNE,22,3.2,-999.0,97,-99.99,,,0.68,Acu-Link.com,2013-07-14 20:26:00,
2013-07-14 16:41:00,70.5,69.6,30.10,East,90,4.2,-999.0,97,-99.99,,,0.68,Acu-Link.com,2013-07-14 20:41:00,
2013-07-14 16:56:00,71.4,69.6,30.10,West,270,5.3,-999.0,94,-99.99,,,0.68,Acu-Link.com,2013-07-14 20:56:00,
2013-07-14 17:11:00,71.4,69.3,30.09,NNE,22,2.2,-999.0,93,-99.99,,,0.68,Acu-Link.com,2013-07-14 21:11:00,
2013-07-14 17:26:00,71.4,68.6,30.09,SSE,157,2.2,-999.0,91,-99.99,,,0.68,Acu-Link.com,2013-07-14 21:26:00,
2013-07-14 17:41:00,70.9,69.4,30.10,West,270,2.7,-999.0,95,-99.99,,,0.68,Acu-Link.com,2013-07-14 21:41:00,
2013-07-14 17:57:00,71.2,68.4,30.09,WNW,292,4.7,-999.0,91,-99.99,,,0.68,Acu-Link.com,2013-07-14 21:57:00,
2013-07-14 18:12:00,71.1,68.7,30.10,NW,315,3.7,-999.0,92,-99.99,,,0.68,Acu-Link.com,2013-07-14 22:12:00,
2013-07-14 18:27:00,71.1,69.3,30.09,ESE,112,2.7,-999.0,94,-99.99,,,0.68,Acu-Link.com,2013-07-14 22:27:00,
2013-07-14 18:42:00,70.5,69.6,30.10,ESE,112,1.7,-999.0,97,-99.99,,,0.69,Acu-Link.com,2013-07-14 22:42:00,
2013-07-14 18:58:00,70.0,69.7,30.10,ENE,67,2.2,-999.0,99,-99.99,,,0.73,Acu-Link.com,2013-07-14 22:58:00,
2013-07-14 19:13:00,69.8,69.2,30.11,NW,315,2.2,-999.0,98,-99.99,,,0.75,Acu-Link.com,2013-07-14 23:13:00,
2013-07-14 19:28:00,69.4,68.8,30.11,WSW,247,2.7,-999.0,98,-99.99,,,0.75,Acu-Link.com,2013-07-14 23:28:00,
2013-07-14 19:43:00,69.4,69.1,30.12,ENE,67,1.1,-999.0,99,-99.99,,,0.75,Acu-Link.com,2013-07-14 23:43:00,
2013-07-14 19:59:00,69.4,68.8,30.12,NE,45,3.2,-999.0,98,-99.99,,,0.75,Acu-Link.com,2013-07-14 23:59:00,
2013-07-14 20:14:00,69.1,68.2,30.12,South,180,3.2,-999.0,97,-99.99,,,0.75,Acu-Link.com,2013-07-15 00:14:00,
2013-07-14 20:29:00,69.4,68.5,30.12,East,90,2.2,-999.0,97,-99.99,,,0.75,Acu-Link.com,2013-07-15 00:29:00,
2013-07-14 20:44:00,69.8,68.3,30.13,NNE,22,4.7,-999.0,95,-99.99,,,0.75,Acu-Link.com,2013-07-15 00:44:00,
2013-07-14 20:59:00,69.6,68.4,30.13,WNW,292,1.1,-999.0,96,-99.99,,,0.75,Acu-Link.com,2013-07-15 00:59:00,
2013-07-14 21:15:00,69.3,68.7,30.14,WNW,292,4.2,-999.0,98,-99.99,,,0.75,Acu-Link.com,2013-07-15 01:15:00,
2013-07-14 21:30:00,69.4,68.2,30.14,East,90,2.2,-999.0,96,-99.99,,,0.75,Acu-Link.com,2013-07-15 01:30:00,
2013-07-14 21:45:00,69.3,68.1,30.15,WNW,292,2.2,-999.0,96,-99.99,,,0.75,Acu-Link.com,2013-07-15 01:45:00,
2013-07-14 22:00:00,69.4,67.9,30.16,East,90,2.2,-999.0,95,-99.99,,,0.75,Acu-Link.com,2013-07-15 02:00:00,
2013-07-14 22:16:00,69.6,67.8,30.16,North,0,2.7,-999.0,94,-99.99,,,0.75,Acu-Link.com,2013-07-15 02:16:00,
2013-07-14 22:31:00,69.4,68.5,30.16,SSW,202,1.1,-999.0,97,-99.99,,,0.75,Acu-Link.com,2013-07-15 02:31:00,
2013-07-14 22:46:00,69.1,68.8,30.17,NNW,337,0.0,-999.0,99,-99.99,,,0.77,Acu-Link.com,2013-07-15 02:46:00,
2013-07-14 23:01:00,68.0,67.1,30.19,NW,315,4.2,-999.0,97,-99.99,,,0.87,Acu-Link.com,2013-07-15 03:01:00,
2013-07-14 23:16:00,67.5,67.2,30.18,SSE,157,1.1,-999.0,99,-99.99,,,0.88,Acu-Link.com,2013-07-15 03:16:00,
2013-07-14 23:32:00,67.3,67.0,30.18,ESE,112,1.7,-999.0,99,-99.99,,,0.88,Acu-Link.com,2013-07-15 03:32:00,
2013-07-14 23:47:00,67.1,66.8,30.18,ESE,112,0.0,-999.0,99,-99.99,,,0.88,Acu-Link.com,2013-07-15 03:47:00,